This demonstration page uses our WeatherBlox Daily Observations layout. Learn more.

Left ArrowRight Arrow

38.88101, -77.10428

Hourly Observations for August 19, 2022

Temp ( °F °C ) Dew Point ( °F °C ) Humidity (%) Winds ( mph kmh ) Pressure ( in mb ) Visibility ( mi km ) Precip ( " mm )
12:52 am 00:52 Clear 74 23.3 67 19.4 79 79 S 6 9 30.02 1017 10 16 0.00 0.00
1:52 am 01:52 Clear 73 22.8 67 19.4 81 81 SSW 5 7 30.03 1017 10 16 0.00 0.00
2:52 am 02:52 Clear 73 22.8 67 19.4 81 81 Calm 30.03 1017 10 16 0.00 0.00
3:52 am 03:52 Clear 71 21.7 67 19.4 87 87 SW 5 7 30.03 1017 10 16 0.00 0.00
4:52 am 04:52 Clear 72 22.2 67 19.4 84 84 Calm 30.03 1017 10 16 0.00 0.00
5:52 am 05:52 Clear 71 21.7 66 18.9 84 84 SW 3 6 30.04 1017 10 16 0.00 0.00
6:52 am 06:52 Mostly Sunny 71 21.7 67 19.4 87 87 SSW 6 9 30.06 1018 10 16 0.00 0.00
7:52 am 07:52 Mostly Sunny 74 23.3 68 20 82 82 Calm 30.07 1018 10 16 0.00 0.00
8:52 am 08:52 Mostly Sunny 77 25 69 20.6 77 77 S 3 6 30.09 1019 10 16 0.00 0.00
9:52 am 09:52 Mostly Sunny 78 25.6 69 20.6 74 74 S 8 13 30.09 1019 10 16 0.00 0.00
10:52 am 10:52 Partly Cloudy 81 27.2 70 21.1 69 69 S 7 11 30.10 1019 10 16 0.00 0.00
11:52 am 11:52 Partly Cloudy 84 28.9 68 20 59 59 S 9 15 30.09 1019 10 16 0.00 0.00
12:52 pm 12:52 Mostly Cloudy 86 30 68 20 55 55 S 10 17 30.09 1019 10 16 0.00 0.00
1:52 pm 13:52 Mostly Cloudy 87 30.6 67 19.4 51 51 S 12 19 30.07 1018 10 16 0.00 0.00
2:52 pm 14:52 Mostly Cloudy 86 30 68 20 55 55 S 13 20 30.07 1018 10 16 0.00 0.00
3:52 pm 15:52 Mostly Cloudy 87 30.6 69 20.6 55 55 S 14 22 30.06 1018 10 16 0.00 0.00
4:52 pm 16:52 Mostly Cloudy 87 30.6 67 19.4 51 51 S 14 22 30.06 1018 10 16 0.00 0.00
5:52 pm 17:52 Mostly Cloudy 84 28.9 68 20 59 59 S 10 17 30.06 1018 10 16 0.00 0.00
6:52 pm 18:52 Mostly Cloudy 83 28.3 66 18.9 57 57 S 13 20 30.07 1018 10 16 0.00 0.00
7:52 pm 19:52 Mostly Cloudy 82 27.8 67 19.4 60 60 S 10 17 30.07 1018 10 16 0.00 0.00
8:52 pm 20:52 Mostly Cloudy 80 26.7 68 20 67 67 S 10 17 30.09 1019 10 16 0.00 0.00
9:52 pm 21:52 Mostly Cloudy 79 26.1 68 20 69 69 S 8 13 30.10 1019 10 16 0.00 0.00
10:52 pm 22:52 Cloudy 78 25.6 68 20 71 71 S 9 15 30.11 1020 10 16 0.00 0.00
11:52 pm 23:52 Cloudy 77 25 68 20 74 74 S 9 15 30.11 1020 10 16 0.00 0.00

Powered by AerisWeather